• en France
  • Liste des pays
  • À 7 jours
  • Température de l'eau
  • Carte satellitaire
  • Carte météo
  • Widgets météo
  • user-avatar
    Se connecter

    Météo par heure à Alajuela

    Ce jour, 16 Décembre, Samedi

    Heure Température Précipitation Vent Pression Humidité
    00:00 +19°C° 0 mm 1 m/s 680 mmHg 81%
    01:00 +19°C° 0 mm 1 m/s 680 mmHg 81%
    02:00 +19°C° 0 mm 1 m/s 680 mmHg 82%
    03:00 +19°C° 0 mm 1 m/s 680 mmHg 83%
    04:00 +20°C° 0 mm 1 m/s 680 mmHg 83%
    05:00 +20°C° 0 mm 1 m/s 680 mmHg 84%
    06:00 +20°C° 0 mm 1 m/s 680 mmHg 84%
    07:00 +21°C° 0 mm 2 m/s 681 mmHg 77%
    08:00 +24°C° 0 mm 2 m/s 682 mmHg 70%
    09:00 +26°C° 0 mm 2 m/s 682 mmHg 63%
    10:00 +27°C° 0 mm 2 m/s 682 mmHg 61%
    11:00 +28°C° 0 mm 3 m/s 682 mmHg 58%
    12:00 +29°C° 0 mm 3 m/s 682 mmHg 55%
    13:00 +28°C° 0 mm 3 m/s 681 mmHg 56%
    14:00 +27°C° 0 mm 3 m/s 681 mmHg 58%
    15:00 +27°C° 0 mm 3 m/s 680 mmHg 60%
    16:00 +25°C° 0 mm 2 m/s 680 mmHg 69%
    17:00 +23°C° 0 mm 2 m/s 679 mmHg 78%
    18:00 +21°C° 0 mm 1 m/s 679 mmHg 88%
    19:00 +19°C° 0 mm 2 m/s 680 mmHg 87%
    20:00 +19°C° 0 mm 2 m/s 680 mmHg 86%
    21:00 +19°C° 0 mm 2 m/s 680 mmHg 85%
    22:00 +19°C° 0 mm 2 m/s 680 mmHg 84%
    23:00 +19°C° 0 mm 2 m/s 680 mmHg 84%

    Demain, 17 Décembre, Dimanche

    Heure Température Précipitation Vent Pression Humidité
    00:00 +18°C° 0 mm 2 m/s 680 mmHg 83%
    01:00 +18°C° 0 mm 2 m/s 680 mmHg 83%
    02:00 +19°C° 0 mm 2 m/s 680 mmHg 83%
    03:00 +19°C° 0 mm 2 m/s 679 mmHg 83%
    04:00 +19°C° 0 mm 2 m/s 679 mmHg 83%
    05:00 +18°C° 0 mm 2 m/s 680 mmHg 83%
    06:00 +18°C° 0 mm 2 m/s 680 mmHg 82%
    07:00 +21°C° 0 mm 2 m/s 681 mmHg 73%
    08:00 +24°C° 0 mm 2 m/s 682 mmHg 63%
    09:00 +26°C° 0 mm 3 m/s 683 mmHg 53%
    10:00 +27°C° 0 mm 3 m/s 683 mmHg 52%
    11:00 +28°C° 0 mm 3 m/s 682 mmHg 52%
    12:00 +29°C° 0 mm 3 m/s 682 mmHg 51%
    13:00 +28°C° 0,1 mm 3 m/s 681 mmHg 56%
    14:00 +27°C° 0,1 mm 3 m/s 681 mmHg 60%
    15:00 +26°C° 0,1 mm 2 m/s 680 mmHg 64%
    16:00 +25°C° 0 mm 2 m/s 680 mmHg 72%
    17:00 +23°C° 0 mm 2 m/s 679 mmHg 80%
    18:00 +21°C° 0 mm 1 m/s 679 mmHg 88%
    19:00 +21°C° 0 mm 1 m/s 680 mmHg 87%
    20:00 +21°C° 0 mm 1 m/s 680 mmHg 87%
    21:00 +20°C° 0 mm 1 m/s 681 mmHg 87%
    22:00 +20°C° 0 mm 1 m/s 680 mmHg 87%
    23:00 +20°C° 0 mm 1 m/s 680 mmHg 86%

    Après-demain, 18 Décembre, Lundi

    Heure Température Précipitation Vent Pression Humidité
    00:00 +20°C° 0 mm 1 m/s 680 mmHg 86%
    01:00 +20°C° 0 mm 1 m/s 680 mmHg 86%
    02:00 +20°C° 0 mm 1 m/s 679 mmHg 85%
    03:00 +20°C° 0 mm 1 m/s 679 mmHg 85%
    04:00 +20°C° 0 mm 1 m/s 679 mmHg 85%
    05:00 +20°C° 0 mm 1 m/s 680 mmHg 86%
    06:00 +20°C° 0 mm 1 m/s 680 mmHg 87%
    07:00 +21°C° 0 mm 2 m/s 681 mmHg 81%
    08:00 +23°C° 0 mm 2 m/s 682 mmHg 76%
    09:00 +25°C° 0 mm 2 m/s 683 mmHg 70%
    10:00 +26°C° 0 mm 2 m/s 682 mmHg 66%
    11:00 +27°C° 0 mm 3 m/s 682 mmHg 61%
    12:00 +28°C° 0 mm 3 m/s 682 mmHg 57%
    13:00 +28°C° 0 mm 3 m/s 682 mmHg 58%
    14:00 +27°C° 0 mm 2 m/s 681 mmHg 59%
    15:00 +27°C° 0 mm 2 m/s 680 mmHg 60%
    16:00 +25°C° 0 mm 2 m/s 680 mmHg 70%
    17:00 +23°C° 0 mm 1 m/s 680 mmHg 80%
    18:00 +21°C° 0 mm 1 m/s 680 mmHg 90%
    19:00 +21°C° 0 mm 1 m/s 680 mmHg 89%
    20:00 +20°C° 0 mm 1 m/s 681 mmHg 88%
    21:00 +20°C° 0 mm 1 m/s 681 mmHg 87%
    22:00 +20°C° 0 mm 1 m/s 681 mmHg 87%
    23:00 +20°C° 0 mm 1 m/s 681 mmHg 87%

    19 Décembre, Mardi

    Heure Température Précipitation Vent Pression Humidité
    00:00 +20°C° 0 mm 1 m/s 681 mmHg 87%
    01:00 +20°C° 0 mm 1 m/s 680 mmHg 87%
    02:00 +20°C° 0 mm 1 m/s 680 mmHg 86%
    03:00 +20°C° 0 mm 1 m/s 680 mmHg 86%
    04:00 +20°C° 0 mm 1 m/s 680 mmHg 86%
    05:00 +20°C° 0 mm 1 m/s 680 mmHg 86%
    06:00 +20°C° 0 mm 1 m/s 680 mmHg 86%
    07:00 +21°C° 0 mm 2 m/s 681 mmHg 76%
    08:00 +24°C° 0 mm 2 m/s 682 mmHg 66%
    09:00 +27°C° 0 mm 2 m/s 683 mmHg 55%
    10:00 +28°C° 0 mm 2 m/s 683 mmHg 53%
    11:00 +28°C° 0 mm 3 m/s 682 mmHg 51%
    12:00 +29°C° 0 mm 3 m/s 682 mmHg 49%
    13:00 +29°C° 0 mm 3 m/s 681 mmHg 53%
    14:00 +28°C° 0 mm 3 m/s 680 mmHg 57%
    15:00 +27°C° 0 mm 3 m/s 680 mmHg 60%
    16:00 +25°C° 0,1 mm 2 m/s 680 mmHg 70%
    17:00 +23°C° 0,1 mm 1 m/s 680 mmHg 80%
    18:00 +21°C° 0,1 mm 1 m/s 680 mmHg 90%
    19:00 +21°C° 0 mm 1 m/s 680 mmHg 90%
    20:00 +20°C° 0 mm 1 m/s 680 mmHg 90%
    21:00 +20°C° 0 mm 1 m/s 681 mmHg 89%
    22:00 +20°C° 0 mm 1 m/s 681 mmHg 88%
    23:00 +20°C° 0 mm 1 m/s 680 mmHg 87%

    20 Décembre, Mercredi

    Heure Température Précipitation Vent Pression Humidité
    00:00 +19°C° 0 mm 1 m/s 680 mmHg 86%
    01:00 +19°C° 0 mm 1 m/s 680 mmHg 86%
    02:00 +20°C° 0 mm 1 m/s 680 mmHg 86%
    03:00 +20°C° 0 mm 1 m/s 679 mmHg 86%
    04:00 +20°C° 0,3 mm 1 m/s 680 mmHg 87%
    05:00 +20°C° 0,3 mm 1 m/s 680 mmHg 89%
    06:00 +20°C° 0,3 mm 1 m/s 680 mmHg 90%
    07:00 +22°C° 0,1 mm 1 m/s 681 mmHg 84%
    08:00 +23°C° 0,1 mm 2 m/s 682 mmHg 78%
    09:00 +25°C° 0,1 mm 2 m/s 682 mmHg 73%
    10:00 +26°C° 0,1 mm 2 m/s 682 mmHg 69%
    11:00 +27°C° 0,1 mm 2 m/s 682 mmHg 65%
    12:00 +27°C° 0,1 mm 2 m/s 681 mmHg 61%
    13:00 +27°C° 0,2 mm 2 m/s 680 mmHg 64%
    14:00 +26°C° 0,2 mm 2 m/s 680 mmHg 67%
    15:00 +26°C° 0,2 mm 2 m/s 679 mmHg 70%
    16:00 +24°C° 0,1 mm 1 m/s 679 mmHg 77%
    17:00 +23°C° 0,1 mm 1 m/s 679 mmHg 84%
    18:00 +21°C° 0,1 mm 1 m/s 679 mmHg 91%
    19:00 +21°C° 0 mm 1 m/s 679 mmHg 91%
    20:00 +21°C° 0 mm 1 m/s 680 mmHg 90%
    21:00 +20°C° 0 mm 1 m/s 680 mmHg 89%
    22:00 +20°C° 0 mm 1 m/s 680 mmHg 89%
    23:00 +20°C° 0 mm 1 m/s 679 mmHg 89%

    21 Décembre, Jeudi

    Heure Température Précipitation Vent Pression Humidité
    00:00 +20°C° 0 mm 1 m/s 679 mmHg 89%
    01:00 +20°C° 0 mm 1 m/s 679 mmHg 89%
    02:00 +20°C° 0 mm 1 m/s 679 mmHg 89%
    03:00 +20°C° 0 mm 1 m/s 679 mmHg 89%
    04:00 +20°C° 0,5 mm 1 m/s 679 mmHg 90%
    05:00 +20°C° 0,5 mm 1 m/s 679 mmHg 90%
    06:00 +20°C° 0,5 mm 1 m/s 680 mmHg 90%
    07:00 +21°C° 0,1 mm 1 m/s 680 mmHg 86%
    08:00 +23°C° 0,1 mm 1 m/s 681 mmHg 82%
    09:00 +24°C° 0,1 mm 2 m/s 682 mmHg 77%
    10:00 +26°C° 0 mm 2 m/s 682 mmHg 69%
    11:00 +27°C° 0 mm 2 m/s 681 mmHg 60%
    12:00 +29°C° 0 mm 2 m/s 681 mmHg 52%
    13:00 +29°C° 0 mm 2 m/s 681 mmHg 54%
    14:00 +28°C° 0 mm 2 m/s 680 mmHg 57%
    15:00 +27°C° 0 mm 2 m/s 679 mmHg 59%
    16:00 +25°C° 0 mm 2 m/s 679 mmHg 69%
    17:00 +23°C° 0 mm 1 m/s 679 mmHg 78%
    18:00 +21°C° 0 mm 1 m/s 679 mmHg 87%
    19:00 +21°C° 0 mm 1 m/s 679 mmHg 86%
    20:00 +20°C° 0 mm 1 m/s 680 mmHg 84%
    21:00 +20°C° 0 mm 1 m/s 680 mmHg 83%
    22:00 +20°C° 0 mm 1 m/s 680 mmHg 83%
    23:00 +20°C° 0 mm 1 m/s 680 mmHg 83%
    Voir plus